Weather in San Juan

Puerto Rico     18°24′56″N   66°03′28″W
temp.,
°C
wind,
m/s
gust,
m/s
humid.,
%
clouds,
%
prec.,
mm/h
press.,
hPa
HPBL,
m
4 july, mon
mon423:00+26ese698643 0.1 1019662
02:00+26ese688620 0.8 1017574
05:00+26ese578427 0.6 1017680
08:00+27e687815 0.8 1018857
11:00+29e887099 0.3 10181114
14:00+29ene887180 0.3 10171049
17:00+28e787498 0.1 1016929
20:00+26e6881100 0.4 1017686
5 july, tue
tue523:00+26e7981100 0.1 1018773
02:00+26e688271 0.3 1016689
05:00+26e578212 0.7 1016628
08:00+27e677522 1.3 1016881
11:00+28e787180 0.3 10161040
14:00+29e7861100 0.3 10151128
17:00+28e7866100 0.0 10141088
20:00+26ese687860 0.1 1016727
6 july, wed
wed623:00+26ese57822 0.4 1017636
02:00+25se46835 0.9 1015557
05:00+25se46858 0.1 1015528
08:00+27ese57779 0.1 1016753
11:00+29e78694 0.1 10161059
14:00+29e88682 0.1 10151081
17:00+28e787217 0.0 1015914
20:00+26ese6881100 0.1 1016648
7 july, thu
thu723:00+26ese578482 0.1 1017596
02:00+25se468557 0.3 1016471
05:00+25se468449 0.1 1016572
08:00+27ese687558 0.4 1017912
11:00+29e78685 0.1 10181156
14:00+29e88689 0.1 10171111
17:00+28e78735 0.0 10171052
20:00+26e798139 0.1 1018728
8 july, fri
fri823:00+26e698425 0.4 1019684
02:00+26ese698413 0.7 1017672
05:00+25ese688589 0.9 1017637
08:00+27ese6972100 1.1 10181126
11:00+29e796882 0.0 10191207
14:00+29e796490 0.3 10191214
17:00+28e897166 0.0 10181013
20:00+26e6881100 0.2 1020685